This is the latest recevied weather packets stored in our database for station/object SQ2WB-13. If no packets are shown the sender has not sent any weather packets the latest 10 day(s).
| Time | Temp. | Humidity | Pressure | Rain* | Wind** | Luminosity | Snow |
|---|---|---|---|---|---|---|---|
| 1787426101 | 15° C | 84% | 1005 hPa | 0 mm | - | - | - |
| 1787425202 | 15.56° C | 79% | 1004.7 hPa | 0 mm | - | - | - |
| 1787424300 | 15.56° C | 81% | 1004.7 hPa | 0 mm | - | - | - |
| 1787423401 | 15.56° C | 80% | 1004 hPa | 0 mm | - | - | - |
| 1787422502 | 15.56° C | 80% | 1004 hPa | 0 mm | - | - | - |
| 1787421601 | 16.67° C | 80% | 1003.7 hPa | 0 mm | - | - | - |
| 1787420702 | 16.67° C | 84% | 1003.3 hPa | 0 mm | - | - | - |
| 1787419801 | 16.67° C | 86% | 1003.3 hPa | 0 mm | - | - | - |
| 1787418901 | 17.78° C | 83% | 1003.3 hPa | 0 mm | - | - | - |
| 1787418003 | 17.78° C | 73% | 1003.3 hPa | 0 mm | - | - | - |
| 1787417101 | 18.89° C | 72% | 1003 hPa | 0 mm | - | - | - |
| 1787416201 | 18.89° C | 77% | 1003 hPa | 0 mm | - | - | - |
| 1787415302 | 18.89° C | 79% | 1003 hPa | 0 mm | - | - | - |
| 1787414402 | 18.89° C | 80% | 1003 hPa | 0 mm | - | - | - |
| 1787413501 | 18.89° C | 73% | 1003 hPa | 0 mm | - | - | - |
| 1787412601 | 18.89° C | 76% | 1002.7 hPa | 0 mm | - | - | - |
| 1787411701 | 20° C | 73% | 1002.3 hPa | 0 mm | - | - | - |
| 1787410801 | 20° C | 74% | 1002.3 hPa | 0 mm | - | - | - |
| 1787409901 | 18.89° C | 81% | 1002.3 hPa | 0 mm | - | - | - |
| 1787409001 | 18.89° C | 77% | 1002.3 hPa | 0 mm | - | - | - |
| 1787408103 | 16.67° C | 81% | 1002.3 hPa | 0 mm | - | - | - |
| 1787407201 | 18.89° C | 80% | 1002 hPa | 0 mm | - | - | - |
| 1787406301 | 20° C | 77% | 1002 hPa | 0 mm | - | - | - |
| 1787405402 | 20° C | 80% | 1002 hPa | 0 mm | - | - | - |
| 1787404501 | 20° C | 76% | 1001.3 hPa | 0 mm | - | - | - |
* Rain latest hour (hover to see other rain measurements)
** Current wind speed in m/s (hover to see current wind gust speed)